RH
66 68 71 75 80 84 86 86 83 75 69 71 74 74 75 81 83 73 67 71 71 70 66 61 60 58 53 52 57 61 58 52 45 49 64 69 64 57 55 54 50 46 43 40 38 36 33 32 29 27 27 29 33 36 37 36 35 34 34 33 32 32 31 31 29 27 23 20 21 17 11 11 12 13 11 10 10 12 15 14 15 14 13 18 26 31 29 28 25 22 25 24 23 21 21 20 18
60 63 66 69 71 74 77 81 83 81 82 84 81 79 73 74 87 81 69 70 73 73 70 65 64 63 59 55 58 64 64 62 53 50 59 64 62 55 51 50 48 45 42 40 38 36 33 31 30 28 27 27 29 32 34 34 34 33 33 33 32 31 30 30 29 27 24 18 18 18 12 11 12 13 12 10 10 12 15 15 14 15 12 14 21 30 32 30 26 23 25 26 26 25 24 23 23
55 57 60 64 67 68 71 74 78 80 85 87 81 80 78 74 79 84 77 70 73 76 75 71 67 66 65 61 61 63 64 68 63 55 51 52 53 48 46 47 47 44 41 40 38 35 33 31 30 28 26 26 27 28 30 31 31 31 30 31 31 30 29 28 28 26 23 18 15 18 13 11 12 13 12 10 11 12 15 15 14 14 12 11 15 24 31 34 29 25 27 29 30 29 29 28 28
51 52 53 56 60 64 66 68 72 75 80 85 80 74 82 85 77 84 83 72 73 76 78 75 68 65 66 64 66 65 62 65 68 65 57 53 51 47 45 47 46 42 40 40 38 35 33 31 30 28 26 25 26 27 28 29 29 29 29 29 29 28 28 26 25 23 21 17 14 17 14 11 12 13 12 10 11 12 15 15 13 13 13 11 10 16 24 31 33 30 29 30 34 36 37 37 36
50 50 48 50 54 57 58 61 66 68 73 82 84 75 79 87 82 86 83 73 75 77 78 76 69 66 67 66 64 64 63 63 65 68 66 63 58 50 46 46 44 41 41 40 37 34 32 30 30 29 27 26 26 27 27 28 28 29 29 29 28 26 25 23 22 20 17 15 13 17 14 11 13 13 12 11 11 12 14 15 13 12 13 12 9 10 14 21 28 32 32 32 33 37 41 43 43
50 50 48 48 50 49 50 54 58 62 67 75 84 81 77 83 83 84 80 73 75 78 80 75 70 70 70 68 63 64 67 67 67 69 71 70 63 52 47 45 43 42 42 39 35 33 31 30 30 28 28 27 26 27 28 29 29 29 29 28 27 24 22 20 19 16 14 13 13 17 14 12 13 13 13 11 12 12 14 14 12 12 13 12 9 7 8 10 15 22 29 32 33 35 38 42 45
51 51 48 47 47 45 46 48 51 56 62 66 78 83 79 81 82 84 82 76 73 76 82 76 69 69 72 70 66 66 67 67 70 73 74 74 66 54 49 46 44 44 42 38 35 34 35 33 31 29 28 27 27 28 28 29 29 29 28 27 25 22 19 17 15 12 11 11 14 18 14 12 13 13 13 11 13 13 13 13 13 12 12 13 10 7 6 6 6 8 14 21 28 32 34 37 41
51 52 48 47 48 43 42 43 43 49 54 57 68 80 83 81 80 85 84 79 74 72 80 79 69 65 67 69 68 67 65 64 67 71 72 71 65 57 51 47 45 43 40 37 36 38 39 38 34 31 29 28 28 28 29 29 28 28 27 27 23 19 16 13 11 9 10 11 15 19 14 13 13 13 13 12 13 13 13 13 12 12 12 13 12 8 6 6 5 5 5 8 14 22 30 35 38
49 51 48 47 48 42 39 41 39 41 45 47 58 71 80 83 80 82 83 79 74 70 74 76 71 65 62 63 65 66 66 64 64 65 64 63 61 58 53 50 48 45 42 38 39 42 42 42 38 33 30 29 28 29 29 29 28 27 27 26 22 16 12 9 8 8 10 12 17 20 13 13 14 13 14 12 13 13 13 13 12 12 12 13 13 10 7 6 6 6 6 5 5 11 23 31 33
48 48 49 46 46 44 39 38 38 37 38 41 50 59 70 79 81 81 83 81 77 74 73 71 69 67 65 61 61 62 63 62 62 62 61 61 60 59 56 54 53 52 49 46 45 46 46 45 41 35 32 30 29 29 29 28 27 26 27 26 22 14 8 7 6 9 12 14 20 20 13 14 14 14 14 12 14 14 14 14 14 13 12 12 13 12 9 7 7 7 7 6 6 7 15 23 26
46 45 47 45 43 43 40 38 38 36 35 37 43 49 58 68 75 77 78 79 80 79 75 72 68 66 66 63 62 62 62 59 57 58 59 60 61 59 57 55 55 55 54 52 51 49 48 46 42 36 32 31 30 29 29 27 26 27 28 27 21 12 7 7 7 12 15 16 22 20 12 15 14 14 14 13 14 14 16 16 17 16 13 12 13 14 10 8 8 8 8 8 7 7 11 15 17
46 42 43 44 41 41 40 39 38 36 35 35 38 42 48 56 64 68 69 71 74 76 74 73 70 66 64 62 62 63 64 64 59 56 56 58 58 57 55 54 54 54 53 52 50 48 46 43 40 35 30 32 31 29 27 26 26 27 28 28 20 10 7 8 9 16 18 18 24 19 12 15 14 14 14 13 15 15 17 18 19 19 16 13 13 14 12 10 10 10 10 9 8 7 7 8 8
45 42 41 40 40 40 40 39 38 37 35 34 35 37 40 45 53 57 61 68 72 73 69 69 68 66 62 56 57 60 62 64 63 60 55 54 54 54 53 51 52 52 51 49 48 46 44 41 38 33 29 30 30 28 25 25 27 28 30 27 17 8 7 10 13 20 21 21 25 18 12 16 15 14 14 14 15 15 17 20 22 21 19 16 14 15 13 11 11 12 12 11 8 5 5 4 4
44 44 41 38 39 39 39 39 38 37 36 35 34 35 36 38 43 47 52 61 69 71 68 67 65 63 59 52 49 52 56 59 61 61 57 53 50 50 50 50 49 48 47 46 45 44 42 39 36 32 28 29 29 26 23 24 26 29 30 23 13 6 8 14 18 25 24 23 26 17 12 16 15 14 15 14 15 15 17 21 24 23 21 18 16 16 15 12 13 14 14 14 10 5 4 3 3
43 45 42 39 38 37 38 37 37 37 36 36 34 34 35 35 37 39 42 47 54 59 62 64 63 61 57 51 46 46 50 55 59 61 59 54 49 47 46 46 45 43 42 42 42 41 39 37 34 31 28 29 28 25 23 24 27 28 28 19 9 5 9 17 22 27 27 26 25 16 12 16 16 15 15 14 15 15 17 22 25 26 23 19 18 18 17 15 17 19 15 15 13 6 4 3 3
42 43 42 40 39 37 38 36 36 37 36 37 35 33 36 35 35 36 37 38 40 43 46 50 55 58 58 53 49 45 44 48 54 57 57 53 48 44 42 41 40 39 38 38 39 38 36 34 32 30 29 28 26 25 23 25 27 26 24 15 6 5 10 19 25 29 30 28 24 15 12 16 16 15 15 15 15 15 16 21 26 27 27 22 19 19 21 20 22 26 18 13 16 10 5 3 3
42 42 41 41 39 37 38 36 36 36 36 37 35 34 36 36 36 36 36 37 36 36 36 37 40 47 53 54 52 47 43 42 46 49 48 45 42 40 39 38 37 36 36 36 36 35 33 31 31 30 27 27 26 24 23 26 27 26 25 14 5 6 10 18 25 30 33 29 23 14 11 16 18 15 15 15 14 16 15 19 23 26 29 27 21 19 23 27 32 38 24 10 14 13 7 4 3
43 42 40 38 37 37 38 37 37 36 36 36 34 35 37 37 36 36 36 36 36 36 35 33 33 35 40 46 48 46 42 40 39 40 40 38 37 35 35 35 34 34 34 34 34 32 31 30 29 28 27 26 25 24 24 27 27 30 30 13 5 6 9 18 25 31 34 28 22 15 11 16 19 15 15 16 15 16 15 17 20 23 29 29 23 18 22 31 42 49 30 8 9 10 7 4 3
42 42 39 33 32 34 36 39 38 35 36 36 35 35 36 37 37 36 36 36 36 36 35 33 32 32 32 34 37 39 38 36 35 35 35 35 34 33 32 33 32 32 32 32 31 30 29 29 28 26 27 25 25 25 25 28 27 31 31 11 4 7 9 17 24 30 31 25 20 14 11 17 20 16 15 16 15 16 15 16 17 19 25 30 26 18 20 30 43 52 32 7 5 6 4 4 3
35 39 35 28 29 33 36 39 38 33 34 38 36 34 35 37 37 35 36 36 36 36 36 35 34 33 31 31 31 32 32 32 32 32 33 33 33 32 32 31 31 31 31 31 30 29 28 27 27 26 27 26 26 26 25 28 25 26 29 16 4 7 10 16 23 27 27 22 18 14 10 17 23 17 14 16 16 16 16 16 17 17 20 27 28 20 17 26 40 48 29 6 3 4 3 3 3
25 28 26 23 27 34 35 35 33 30 32 37 38 35 32 36 37 34 34 36 36 36 37 36 36 35 33 33 32 31 31 31 32 32 31 31 31 31 32 31 31 31 30 30 29 28 27 26 27 27 27 27 27 27 27 27 22 18 25 23 9 8 14 18 24 27 25 19 17 14 11 19 26 19 14 16 16 16 16 16 16 16 17 21 27 25 17 20 32 37 20 4 3 3 3 3 3
18 18 16 20 24 29 32 28 26 27 31 34 36 33 29 34 35 32 31 32 35 36 36 36 37 36 35 35 34 33 33 33 34 34 34 33 32 32 32 31 30 30 29 29 28 26 26 27 27 27 28 29 28 29 27 21 16 12 20 26 14 12 21 24 28 30 26 19 16 13 11 21 30 22 15 15 16 17 16 16 16 17 17 18 25 28 21 17 23 23 10 3 4 3 3 3 4
13 12 11 17 19 21 24 21 20 24 27 29 33 29 25 28 30 30 30 29 34 35 33 34 37 36 36 36 35 35 35 35 36 37 39 38 35 35 34 32 31 30 28 28 27 27 28 28 28 29 29 29 29 27 21 14 9 10 20 26 18 21 32 36 38 37 31 21 16 13 11 24 33 26 17 14 16 17 17 17 17 17 17 18 26 31 25 18 17 13 6 4 4 3 4 4 4
13 11 10 12 14 15 16 14 14 18 23 23 27 25 19 22 25 27 26 28 32 31 31 32 35 36 36 36 36 36 36 36 37 38 39 39 37 36 34 33 31 30 29 29 29 30 30 30 29 30 29 28 26 20 13 8 6 12 25 26 26 37 47 50 51 46 38 25 17 13 12 26 36 30 19 14 16 18 19 19 17 17 17 18 28 35 29 21 17 11 6 4 4 4 3 4 4
17 15 13 11 10 12 12 12 10 12 17 16 16 16 15 18 21 21 22 27 29 28 31 31 32 34 35 35 35 35 36 36 37 37 37 37 36 36 34 34 33 31 31 31 31 31 31 30 29 27 25 22 16 11 8 7 9 21 30 32 43 56 58 61 63 58 49 32 20 15 13 27 40 33 22 17 17 18 19 20 19 18 18 18 27 38 34 25 20 14 10 7 5 4 4 4 5
19 18 18 14 12 12 11 11 9 9 12 11 9 10 12 13 14 15 18 22 24 25 28 29 30 31 32 33 33 33 34 34 35 35 35 35 35 35 34 34 33 32 32 31 31 29 28 26 23 20 16 12 8 8 8 8 17 29 33 38 52 62 65 72 75 73 64 43 26 18 16 30 41 36 27 22 20 19 19 20 20 19 19 17 24 39 40 32 27 20 15 11 8 6 4 4 5
20 20 20 17 16 16 14 12 10 9 9 8 8 8 9 9 9 11 14 16 18 22 24 25 26 27 28 30 30 30 30 30 31 31 31 31 31 31 32 32 32 31 29 28 26 24 22 18 15 12 9 8 7 8 9 11 23 33 34 38 47 56 69 81 84 84 80 65 42 24 21 32 40 36 31 29 25 22 21 21 21 20 21 19 22 37 44 38 35 31 23 15 12 9 6 4 5
22 21 21 18 18 19 18 16 13 11 10 8 8 8 7 7 6 8 10 11 13 17 19 20 21 22 24 25 25 26 25 26 26 26 26 26 26 26 27 27 26 25 22 21 19 16 14 11 10 9 8 8 8 10 9 13 27 35 36 41 46 56 72 84 90 91 91 88 63 33 28 36 38 36 35 35 31 28 26 24 23 22 21 20 21 35 47 43 39 42 37 25 15 11 8 5 6
24 24 23 21 20 19 17 17 17 15 13 11 10 9 6 5 5 7 8 8 10 12 14 15 17 17 18 19 21 21 21 21 21 21 21 21 21 20 20 20 19 17 16 15 13 12 10 10 10 9 9 9 9 10 9 15 31 38 40 44 47 57 73 85 94 94 94 99 75 39 34 41 38 37 39 39 35 32 29 27 26 23 22 22 20 31 44 43 39 46 50 38 21 14 12 8 7
20 25 26 24 22 19 16 16 17 16 15 14 14 10 6 6 5 6 8 6 8 10 10 12 13 14 15 16 17 18 19 18 17 17 17 17 16 15 14 14 15 14 13 12 11 11 10 9 8 7 7 7 8 10 13 21 35 43 45 46 46 56 73 84 92 92 96 99 73 42 41 45 39 40 43 42 37 33 31 30 29 26 23 22 21 28 37 37 36 44 55 50 29 17 16 12 10
13 20 26 26 24 21 18 17 16 16 15 14 15 11 7 8 6 6 7 6 8 9 9 10 10 11 13 14 15 16 17 16 16 15 15 14 13 13 13 14 15 13 12 11 10 8 7 6 5 5 5 6 6 9 18 27 38 48 49 45 45 54 68 79 85 88 97 97 67 45 49 48 41 44 48 44 38 34 32 32 34 31 26 24 25 30 35 35 36 42 53 55 34 18 17 15 12
9 12 20 24 25 24 21 19 17 16 15 13 14 12 9 11 9 6 6 6 7 8 8 8 9 10 10 11 13 14 15 15 15 15 14 14 13 13 14 16 14 12 10 8 6 5 4 4 3 3 3 4 4 8 18 26 34 43 44 41 43 50 61 72 82 85 97 94 61 47 54 50 44 46 48 44 38 35 34 36 40 38 33 32 33 35 36 36 42 47 55 57 36 17 15 13 11
8 7 13 20 24 26 22 19 20 19 16 13 12 11 10 13 13 7 6 7 7 8 8 8 8 8 9 9 10 12 13 13 13 13 13 13 12 12 13 14 10 8 6 4 4 3 3 3 3 3 2 3 3 6 14 19 26 33 35 37 41 47 52 62 76 85 96 89 58 49 55 51 50 50 48 43 38 36 36 40 45 45 43 43 40 39 39 41 52 63 66 57 33 15 13 11 8
8 6 8 14 21 27 24 20 23 23 19 14 12 12 11 12 12 8 7 8 7 7 7 7 8 8 8 8 8 9 10 11 11 10 10 10 9 10 11 9 6 4 3 3 3 3 3 3 3 3 3 5 7 11 17 21 26 31 34 37 41 48 50 56 71 86 97 83 57 53 56 55 57 56 51 44 39 37 38 44 49 50 50 47 43 41 42 49 64 71 64 47 25 13 11 8 6
8 7 6 10 17 25 26 22 24 26 22 18 14 11 10 10 10 8 9 10 8 7 7 7 8 7 7 7 7 8 8 9 8 7 7 7 8 10 9 6 4 3 3 3 3 3 3 3 3 3 3 5 10 20 27 31 36 39 40 40 42 47 52 59 70 86 95 76 57 59 59 60 64 63 57 47 43 42 40 46 51 53 51 48 46 45 45 56 70 66 48 30 16 10 9 6 6
14 9 7 8 12 21 26 22 24 28 26 22 17 13 10 9 9 9 11 12 9 8 7 7 7 7 7 7 7 7 7 7 6 6 5 6 8 8 6 4 4 3 3 3 3 3 3 3 3 3 3 3 7 19 26 33 44 48 48 46 46 47 50 55 62 78 86 70 59 64 63 64 69 68 61 52 49 45 42 47 52 54 54 53 51 48 49 62 71 57 34 17 9 7 7 6 7
18 12 9 8 9 16 24 26 26 29 27 23 20 17 13 10 9 9 11 11 10 10 8 8 7 7 7 7 7 7 7 6 5 5 5 7 8 6 5 4 3 3 3 3 3 3 3 4 3 3 4 2 4 12 21 33 48 54 53 51 50 49 47 49 62 77 79 65 61 67 69 70 71 68 62 57 53 48 45 46 49 55 58 58 55 50 52 65 71 53 26 10 6 6 6 7 8
22 14 10 9 8 12 22 29 29 29 27 24 22 19 14 12 10 9 10 10 10 10 10 9 8 7 7 7 7 7 6 6 5 5 6 7 8 6 5 4 4 4 3 3 3 3 3 4 3 3 3 3 5 9 18 36 49 54 55 56 57 57 55 60 75 84 74 61 58 61 65 66 66 64 62 58 50 42 40 40 44 53 59 60 57 53 54 66 74 56 24 8 6 7 7 8 8
26 18 13 10 8 10 20 29 30 30 29 26 23 19 15 13 11 9 9 9 9 10 11 11 10 8 8 7 7 7 6 6 6 6 6 7 7 5 5 4 4 4 3 3 3 3 4 3 4 5 3 4 4 5 16 29 36 45 53 60 69 71 71 77 85 85 74 61 55 53 56 58 58 60 56 48 41 35 32 37 46 54 60 60 57 57 58 67 77 57 22 7 7 8 8 9 10
27 21 16 11 8 9 17 27 30 29 28 27 24 20 17 15 12 10 9 9 9 10 11 12 12 11 9 8 7 6 6 6 6 6 7 7 6 5 5 5 4 4 4 3 3 3 4 4 4 4 4 5 5 8 14 15 19 38 52 59 72 77 76 83 89 86 75 64 59 58 59 60 58 56 47 38 40 43 40 46 56 61 65 64 61 62 63 73 78 50 16 8 9 8 9 10 12
28 26 21 14 9 9 16 28 30 29 29 26 23 20 18 15 13 10 8 9 9 9 10 11 12 12 10 9 7 7 7 6 7 7 7 7 7 6 6 5 5 5 4 3 4 4 4 5 4 5 5 5 9 14 17 20 29 48 62 61 65 71 75 83 88 86 78 70 70 72 72 74 70 55 40 35 43 51 52 58 65 68 71 68 67 68 71 80 73 40 15 10 9 9 11 12 15
29 28 25 17 10 9 17 28 30 30 28 24 22 20 17 15 13 11 9 8 8 8 9 10 12 13 12 10 8 8 7 6 7 7 7 8 6 6 6 6 5 5 4 4 4 4 4 4 4 5 5 10 23 27 24 35 51 66 77 67 55 63 76 82 83 84 83 79 80 83 84 88 78 53 43 47 55 61 65 70 74 76 77 74 74 76 80 79 59 31 17 14 12 12 14 16 20
30 28 26 20 11 10 17 27 30 29 27 24 23 20 19 16 12 11 10 8 8 8 8 9 11 13 13 12 10 9 7 6 6 7 8 8 6 7 7 6 6 5 5 5 4 6 9 12 11 7 11 30 52 59 51 50 60 73 78 66 60 76 88 88 89 92 93 91 91 91 92 95 82 62 61 69 73 77 79 82 84 85 83 80 81 84 83 69 42 25 20 18 16 16 18 21 23
30 28 28 23 12 10 18 26 30 29 28 27 24 22 21 17 12 11 11 9 8 8 8 8 10 13 14 14 12 10 9 8 7 9 9 8 8 8 8 8 7 5 5 4 4 7 14 24 31 31 46 65 70 75 75 67 69 78 76 69 77 91 94 95 98 100 100 98 97 94 90 92 87 79 81 82 84 89 91 94 94 91 89 87 88 91 87 66 40 28 25 21 20 21 23 26 27
33 28 30 27 14 11 18 25 28 28 28 26 23 23 21 16 13 12 11 10 9 8 8 8 9 12 13 14 13 12 11 10 10 11 10 9 10 10 10 10 7 6 6 5 7 13 22 38 51 58 74 83 75 75 79 71 71 79 79 79 85 89 92 98 100 100 101 99 97 94 89 90 92 92 93 92 95 98 99 100 96 91 92 92 94 97 92 74 49 34 27 23 23 24 26 29 34
34 27 32 32 17 10 17 23 26 26 25 24 23 22 19 16 14 11 10 9 8 9 8 8 9 10 13 14 14 13 12 12 12 12 11 10 11 12 11 10 8 7 5 8 19 30 41 52 58 67 80 85 81 83 84 79 76 77 79 84 88 90 94 98 98 97 99 99 98 98 93 91 96 99 99 98 99 101 101 98 93 92 95 97 100 99 91 73 50 32 25 24 25 27 31 38 44
37 30 37 36 18 10 16 21 23 24 22 21 23 22 18 16 13 10 10 9 9 9 8 8 9 9 12 13 14 14 13 14 14 13 12 13 13 13 12 10 9 8 5 8 18 28 38 43 42 56 80 92 89 83 79 78 76 75 79 86 91 96 98 98 98 96 93 94 97 97 95 95 99 101 100 99 100 101 100 98 96 98 99 100 101 93 74 53 34 25 24 26 29 34 41 47 50
39 35 42 36 18 11 15 18 21 21 19 21 22 22 19 16 14 12 11 10 9 9 8 8 9 9 11 12 15 15 14 14 14 14 14 14 14 13 13 12 9 8 7 6 9 14 22 26 30 46 70 83 75 61 59 66 72 76 79 82 87 95 100 99 98 95 92 93 95 97 99 100 100 101 100 100 101 101 100 99 100 100 101 101 94 72 47 30 23 25 28 32 37 43 48 52 53
42 42 44 34 19 11 13 16 19 18 18 20 22 21 19 15 15 13 11 11 10 9 10 9 9 10 11 14 15 15 15 15 15 15 15 15 15 14 14 14 11 9 8 7 7 10 14 17 26 44 66 71 53 44 55 68 77 78 74 75 85 94 98 98 97 96 96 98 97 98 100 100 100 101 99 99 99 99 100 100 100 101 100 93 72 44 27 24 27 31 35 41 45 49 53 55 55
37 40 41 33 21 12 12 14 16 18 16 18 20 20 18 15 15 12 10 11 10 10 10 10 10 12 14 16 16 16 16 16 16 16 17 16 15 15 15 15 14 12 10 9 8 9 13 16 25 43 67 67 45 42 62 77 83 81 75 80 92 98 98 100 99 97 98 101 99 99 101 100 101 101 98 94 90 91 97 100 101 100 93 74 49 32 28 32 35 39 43 47 51 55 57 57 56
38 42 42 35 23 13 12 13 14 16 16 16 18 18 17 16 14 11 10 11 10 10 11 10 11 14 17 17 17 17 17 16 17 17 17 17 16 16 16 16 15 14 13 11 9 10 10 16 32 50 61 54 36 37 58 78 88 88 87 92 98 96 94 98 100 98 100 99 95 98 101 100 100 100 96 94 91 92 98 101 100 95 79 56 41 37 38 40 42 44 47 51 57 61 62 60 57
51 50 45 36 26 18 14 13 14 15 15 14 16 17 17 16 13 10 11 12 10 10 11 10 11 13 16 18 18 18 17 17 18 18 18 18 16 16 16 16 17 16 15 12 11 11 7 14 37 52 49 39 28 30 50 74 86 89 93 97 98 95 94 98 99 99 100 96 91 95 100 100 101 98 95 97 99 99 100 101 98 85 64 49 44 43 43 44 45 47 53 60 65 66 63 60 56
51 47 43 37 32 25 18 15 13 14 14 13 13 17 17 14 11 10 11 12 11 11 10 10 11 13 16 18 18 17 16 17 18 18 19 18 17 17 17 18 19 17 17 14 11 10 7 16 35 40 32 28 28 35 52 70 81 88 93 94 96 99 98 96 97 97 96 93 93 99 100 101 99 95 96 99 99 100 101 100 89 69 53 48 47 45 44 45 48 55 62 67 68 66 61 56 52
55 46 44 43 37 27 22 21 16 13 14 12 13 17 18 15 12 10 11 12 11 10 11 10 11 13 16 17 17 16 16 17 18 18 18 17 17 17 17 18 19 18 17 15 12 9 9 20 32 31 26 34 53 69 73 76 82 89 94 93 93 95 92 88 89 91 92 93 97 101 101 100 97 94 97 99 99 101 97 87 72 58 51 50 47 46 47 51 58 65 69 69 67 62 58 53 48
61 57 51 43 34 27 24 22 17 13 12 12 14 16 18 16 13 11 12 12 11 11 11 11 11 13 15 15 15 15 16 17 17 17 16 16 17 17 19 20 19 19 18 14 11 10 16 28 33 30 29 43 74 93 86 79 82 88 95 94 88 84 81 81 83 83 89 97 100 99 96 95 95 95 98 101 99 92 81 69 60 53 50 48 47 51 56 63 68 71 70 68 63 58 55 50 41
52 59 54 40 34 31 27 23 18 17 17 15 15 16 19 17 13 12 12 12 12 11 11 11 12 13 14 15 15 15 16 17 16 17 16 16 18 20 23 24 22 21 17 13 12 15 25 33 32 32 38 53 78 91 85 81 83 88 93 87 80 77 72 72 80 86 93 98 95 91 90 91 95 98 100 98 90 78 68 60 52 49 49 51 55 61 66 71 71 70 68 64 59 55 51 42 32
43 44 44 40 37 33 31 29 25 24 24 20 17 16 18 17 13 11 12 12 12 11 12 12 12 14 15 15 16 16 17 18 17 17 17 18 20 23 26 28 25 19 14 12 13 21 31 34 33 40 52 67 82 86 82 81 83 86 85 77 77 81 74 70 80 91 96 93 86 88 94 97 99 98 93 87 79 71 63 54 48 50 55 59 65 69 72 72 70 69 66 61 57 52 43 34 27
52 43 40 40 39 34 34 33 28 27 27 23 20 18 18 17 13 12 12 13 13 12 14 15 15 16 16 15 17 17 18 18 17 18 19 20 23 25 26 26 22 16 13 13 17 26 35 35 38 49 62 72 78 79 78 79 82 81 75 72 79 82 77 76 84 91 95 93 91 96 100 98 92 86 80 77 71 61 53 49 52 57 61 66 70 72 72 71 70 68 63 58 55 46 36 29 26
Wind_Speed
28 29 28 28 27 25 25 25 26 31 35 30 28 30 29 32 30 25 24 23 22 21 19 18 15 14 16 16 14 12 13 14 12 11 11 11 9 7 5 3 2 3 5 6 7 8 9 9 9 9 10 10 11 12 12 12 13 14 16 18 20 21 23 25 26 27 27 27 25 22 19 17 19 20 21 20 19 17 17 17 17 16 16 15 13 13 14 13 12 11 10 10 9 9 9 9 10
30 29 29 29 29 28 26 26 25 26 28 25 25 31 35 37 33 28 26 24 24 23 21 20 18 15 15 15 14 14 15 15 13 12 12 11 8 6 6 4 3 3 5 6 7 9 9 9 9 10 10 10 11 12 13 13 14 16 17 19 21 22 24 26 27 28 28 28 25 22 18 16 17 19 20 19 18 17 16 16 16 16 16 15 14 13 13 13 12 11 10 10 9 9 9 9 9
33 31 31 30 30 30 28 28 26 24 26 22 18 26 36 38 38 34 28 25 25 25 23 21 20 18 17 16 16 17 17 16 14 13 13 11 9 8 8 5 4 4 5 6 7 9 9 10 10 11 11 11 11 12 13 15 16 18 19 21 23 24 26 28 28 29 29 28 25 20 17 15 16 17 18 18 17 16 15 15 15 16 15 15 14 13 13 13 13 12 11 10 10 9 9 9 9
35 34 32 31 30 30 30 29 28 28 27 21 17 23 30 35 42 39 30 28 26 25 25 22 21 21 21 19 18 19 18 17 15 13 12 11 11 10 9 7 6 5 5 6 7 9 10 11 11 12 12 12 13 13 14 16 17 19 21 23 24 27 28 30 30 30 30 29 25 19 15 14 14 16 17 17 16 15 14 15 15 15 15 15 14 13 12 12 12 12 11 11 10 10 9 9 10
37 36 35 33 32 32 32 31 31 33 28 22 21 25 28 32 40 39 32 30 28 26 24 22 22 21 20 20 20 19 18 18 17 15 13 12 12 10 9 8 7 7 6 5 6 8 10 12 13 13 14 14 14 14 15 17 18 20 23 25 26 28 30 31 31 31 30 29 24 17 14 12 13 14 15 15 15 14 14 14 14 15 14 14 13 13 12 12 12 11 11 11 10 10 10 10 10
39 38 38 36 36 35 33 32 33 34 31 29 28 29 30 32 37 39 33 30 31 29 25 22 22 20 19 20 21 20 19 19 19 17 16 14 12 10 10 9 8 8 7 5 6 9 12 14 15 15 15 15 14 15 16 18 20 22 24 27 28 30 31 32 32 32 30 28 22 15 12 11 11 13 14 14 14 13 13 13 14 14 14 13 13 13 12 11 11 11 10 10 10 10 10 10 10
41 40 41 39 39 39 36 36 36 34 34 34 33 34 34 33 36 38 35 31 31 31 29 25 23 21 21 21 21 21 20 20 19 18 17 15 13 12 12 11 10 10 8 5 5 8 12 15 17 17 16 15 15 16 17 19 21 24 26 28 30 31 32 32 33 31 29 26 20 13 11 10 10 12 13 13 13 12 12 12 13 13 13 13 12 12 12 12 11 11 10 10 9 9 10 10 10
43 42 43 41 41 43 40 39 39 36 37 36 33 35 35 35 37 37 36 33 31 31 30 29 27 24 24 23 21 21 20 19 19 18 18 16 15 16 15 13 10 9 8 5 5 8 12 15 17 18 18 17 16 17 19 20 23 25 28 30 31 32 32 32 32 30 28 24 17 11 9 8 9 10 11 11 11 11 12 12 12 13 13 12 12 12 12 12 12 11 11 10 10 9 9 10 10
45 45 45 43 44 45 42 42 41 39 40 36 32 34 35 37 38 38 38 34 32 31 30 30 29 28 29 27 25 23 21 20 19 18 19 18 18 18 17 14 11 11 10 9 9 11 14 17 18 18 19 19 18 18 20 22 24 27 29 30 32 33 32 32 31 29 26 22 14 10 8 7 8 8 9 10 10 10 11 11 12 12 12 12 11 11 12 12 12 12 12 11 10 9 9 8 8
48 47 47 46 46 47 45 44 43 41 41 35 33 35 36 37 38 38 37 35 34 34 34 32 30 31 32 30 28 26 23 22 21 20 20 20 20 19 19 18 17 17 18 17 15 17 19 20 20 19 19 20 20 19 21 23 25 29 30 30 32 33 32 31 29 26 25 19 12 9 7 6 6 7 8 8 8 9 10 11 11 11 11 11 11 11 11 12 12 13 13 12 11 9 7 7 7
50 50 50 50 48 49 48 45 44 43 41 36 35 36 36 37 37 37 36 34 33 35 36 34 32 31 32 31 30 29 27 25 23 23 23 22 22 22 21 21 22 23 23 22 20 21 23 23 22 20 19 20 20 21 22 24 27 29 29 30 31 32 31 29 26 25 24 17 11 10 7 5 5 5 6 6 7 8 9 10 11 11 11 10 10 10 10 11 12 13 13 13 12 10 7 6 5
52 53 52 52 51 51 50 47 46 45 42 39 37 37 38 37 37 37 35 34 33 33 33 34 33 32 31 31 31 30 29 28 28 26 25 25 24 23 22 22 23 24 25 24 23 24 25 24 22 21 20 21 21 22 23 25 27 28 28 30 30 30 29 28 25 23 22 16 10 10 8 6 5 5 5 5 6 7 8 9 10 10 10 10 9 9 9 10 11 12 12 13 12 11 8 6 5
54 54 54 54 53 52 52 50 48 47 44 43 40 38 38 37 37 36 35 37 36 34 35 34 34 33 31 31 31 30 30 31 31 29 28 27 26 25 24 24 25 26 26 26 26 26 25 24 23 22 21 22 23 23 24 26 27 28 29 30 30 29 28 26 24 22 20 14 10 9 8 6 5 5 4 4 5 6 7 8 9 10 10 9 9 8 8 8 9 10 11 12 12 11 9 8 7
55 55 57 55 54 54 53 53 51 49 46 45 43 39 37 37 37 36 35 36 37 38 38 36 35 35 33 31 30 30 31 32 32 32 31 29 28 27 26 26 26 27 27 27 27 26 25 25 24 23 22 23 24 25 25 26 27 28 29 30 28 27 26 25 23 22 19 14 10 9 8 7 6 5 4 4 4 5 6 7 8 9 9 9 8 7 7 7 7 8 9 10 10 10 10 9 9
56 57 59 56 57 56 55 56 53 51 48 46 45 41 38 37 36 34 34 35 37 38 37 37 37 37 36 33 32 31 32 32 32 33 33 31 30 28 28 27 27 28 28 28 28 26 26 26 25 24 24 24 25 26 26 26 28 30 30 29 27 25 25 25 23 21 18 13 10 10 9 7 6 5 4 4 4 5 5 6 7 8 9 9 8 7 6 6 6 7 8 8 9 9 10 10 10
57 59 60 59 60 58 58 58 53 53 50 47 48 41 37 37 34 33 34 34 37 37 36 38 37 38 39 36 35 33 32 33 34 33 33 32 31 29 29 28 29 29 29 29 27 27 27 27 27 26 25 26 26 27 27 27 29 31 30 28 25 23 23 24 22 20 17 13 10 10 9 8 7 5 5 4 5 5 5 5 6 7 8 8 8 7 6 5 6 7 7 7 7 7 9 10 11
59 61 61 62 64 61 60 59 55 55 51 50 48 39 37 39 35 34 35 35 37 37 36 37 37 38 39 39 38 35 34 34 34 33 32 32 31 30 29 29 30 30 30 28 27 28 29 28 28 27 27 27 27 27 27 29 31 32 29 26 24 22 21 22 21 19 17 13 11 10 10 8 7 6 6 6 6 5 5 5 5 6 7 8 8 7 6 5 5 6 6 6 6 6 7 9 11
63 63 64 66 65 62 61 59 58 56 51 50 46 40 39 41 39 37 36 37 37 37 37 37 37 37 38 39 38 37 36 36 34 33 32 32 31 30 30 30 31 30 30 29 29 29 30 29 29 29 28 28 28 28 28 29 31 31 28 24 23 21 20 21 20 19 17 14 11 11 10 9 8 7 7 7 7 7 6 5 5 6 7 8 8 7 6 5 5 5 6 6 5 5 6 7 9
65 65 67 67 65 63 61 59 61 58 52 49 45 43 42 42 42 40 40 40 38 37 38 38 37 37 37 37 37 37 37 36 35 33 32 31 30 30 30 31 31 31 31 31 30 31 31 31 30 30 29 29 29 29 30 30 32 31 27 23 22 20 19 20 20 19 17 14 12 11 10 9 9 8 8 9 9 9 8 7 6 7 7 8 9 8 7 6 5 5 6 6 5 5 6 7 8
66 67 69 67 64 63 62 61 63 59 51 49 47 45 44 43 44 44 43 42 41 39 39 39 38 38 38 37 36 36 36 35 34 33 31 30 30 30 30 30 31 32 32 31 31 32 32 31 31 30 29 29 30 31 31 32 33 32 28 24 21 20 19 19 19 19 18 15 12 12 10 10 10 9 10 11 10 10 10 9 8 8 8 9 10 9 7 6 6 6 6 5 5 5 6 7 8
66 68 68 65 64 64 64 65 65 59 52 49 49 48 46 44 46 47 45 45 45 42 41 40 40 40 39 37 36 35 35 34 33 31 29 29 30 30 30 30 31 32 32 31 32 33 32 31 31 30 30 30 31 32 33 34 34 33 31 26 22 20 18 19 19 19 18 15 13 12 11 11 11 11 12 12 12 12 12 11 10 10 10 10 11 10 9 7 6 6 5 5 5 5 6 7 7
66 67 65 64 65 65 66 66 63 58 53 50 49 49 47 46 48 48 47 47 46 46 46 43 42 43 41 39 38 36 35 33 32 30 29 29 30 30 29 29 30 31 32 32 33 33 32 31 31 31 31 32 33 34 35 35 33 32 31 27 22 20 20 21 20 19 19 16 14 12 12 12 12 12 13 13 13 13 13 12 12 12 11 12 12 11 10 8 7 6 5 5 5 6 6 6 7
66 67 63 63 65 65 65 64 60 56 54 50 49 49 47 47 49 49 50 49 47 50 50 45 44 45 43 42 40 38 36 34 33 31 30 30 30 30 29 29 30 31 32 32 32 32 32 31 31 32 32 33 35 36 36 33 30 30 30 26 21 20 22 22 21 20 19 17 14 13 13 14 14 13 14 13 13 13 14 14 14 14 13 13 12 11 11 9 8 7 6 6 7 7 7 7 7
65 66 64 64 66 65 64 62 58 55 53 49 48 48 47 47 49 52 51 49 50 52 50 48 47 46 45 45 43 41 39 37 36 35 34 32 31 31 30 30 30 31 31 32 32 32 32 32 33 33 34 35 36 36 33 29 27 29 27 23 21 21 22 23 21 20 20 17 15 14 14 15 15 14 14 13 13 13 14 15 16 16 15 14 13 11 11 10 9 8 8 8 8 8 8 8 9
65 65 65 66 67 64 63 62 57 53 52 49 46 45 45 47 50 53 51 50 53 51 50 50 48 47 46 46 45 43 41 40 39 38 37 34 33 32 31 31 31 31 32 32 33 32 33 34 35 35 35 36 35 32 29 26 27 27 24 20 20 21 22 22 21 20 20 18 16 15 16 16 16 15 14 13 13 13 14 16 17 18 17 16 14 12 11 11 10 10 10 10 10 10 9 9 10
65 64 66 67 65 63 62 62 58 53 51 48 44 42 44 48 49 50 49 51 53 50 49 49 48 48 47 46 45 44 42 41 40 40 38 35 34 33 33 33 32 33 33 33 34 34 35 36 35 35 34 32 30 29 27 25 25 24 22 21 21 22 22 21 20 20 21 19 16 16 16 17 17 15 14 13 13 14 14 16 18 19 18 17 15 13 12 12 12 12 12 12 11 11 11 11 11
66 64 67 67 64 62 62 61 59 55 53 49 45 43 46 47 46 46 49 51 50 48 48 48 48 48 47 46 45 44 43 41 41 40 38 36 35 34 33 34 34 34 34 35 35 35 35 35 33 31 30 29 28 29 28 26 24 22 21 22 22 22 21 21 21 21 22 20 18 17 17 18 17 16 15 13 14 14 15 16 17 19 19 17 16 15 14 14 13 13 13 13 13 13 12 12 12
67 64 64 66 63 62 62 61 60 57 54 50 46 46 47 46 46 47 49 49 45 44 46 46 47 47 47 45 44 44 43 41 40 38 37 36 34 33 33 34 34 33 34 34 34 33 33 32 30 29 28 29 30 31 30 28 25 23 22 22 22 22 22 23 22 22 22 21 20 18 18 18 19 18 16 14 14 15 16 16 17 18 18 18 17 17 16 15 15 14 13 13 14 14 13 13 13
66 63 62 63 63 63 63 61 60 57 55 50 48 50 48 47 47 46 47 45 40 42 44 44 46 46 46 44 43 42 41 40 38 37 36 34 32 31 32 32 31 31 33 33 32 32 31 30 29 28 29 30 32 33 32 29 27 25 23 23 24 24 24 24 23 23 22 21 20 19 19 19 20 19 17 15 16 17 17 17 16 16 17 17 18 18 18 18 16 15 14 14 14 14 14 14 15
65 62 62 63 64 65 63 61 60 58 55 51 50 51 48 47 47 44 44 42 38 41 42 42 43 44 44 43 41 40 40 39 37 36 35 32 30 29 30 29 29 30 31 31 32 31 30 29 29 29 30 32 33 33 31 29 29 27 25 25 26 26 26 25 24 24 22 21 21 20 19 20 21 20 18 17 17 17 17 17 16 16 16 16 18 19 20 20 18 17 16 15 15 14 15 15 15
65 62 62 63 64 64 63 61 60 57 55 51 49 50 48 47 47 45 44 42 39 40 40 39 41 41 41 40 39 38 38 38 37 36 32 29 27 27 28 27 27 29 29 30 30 29 28 28 28 28 30 31 32 32 31 31 31 30 27 26 27 27 26 25 24 23 22 22 21 20 20 21 22 21 18 18 18 17 17 17 17 16 16 17 18 19 20 20 19 19 17 16 15 14 14 15 15
65 64 63 64 64 63 63 61 58 56 55 52 49 50 48 46 50 49 45 42 40 40 39 39 39 39 38 37 37 37 37 37 36 34 30 27 27 28 26 25 26 27 26 26 26 26 26 25 25 25 26 28 30 31 32 33 33 32 29 27 28 27 26 24 23 23 23 24 23 22 22 22 23 21 20 19 18 17 17 17 17 17 17 18 19 20 21 21 20 20 19 18 16 14 14 14 14
67 66 64 63 62 62 64 61 57 55 54 52 50 51 48 46 51 49 44 43 42 40 39 39 39 38 36 35 36 36 36 35 34 32 29 28 27 25 23 24 25 23 22 23 23 23 23 22 21 22 23 25 27 30 32 33 34 33 31 29 29 28 26 25 24 23 24 26 25 23 23 23 23 22 21 19 18 17 17 17 17 17 18 19 20 21 21 21 20 19 18 17 16 13 13 13 13
68 67 65 63 61 60 62 60 55 54 53 53 52 53 50 48 51 46 41 43 43 41 40 39 39 37 35 35 35 35 34 33 32 30 29 27 24 21 22 24 21 19 20 21 21 21 20 20 20 21 22 23 25 28 30 32 32 32 30 29 29 29 27 26 25 23 26 28 27 25 24 24 24 23 21 20 19 18 17 17 17 18 19 20 21 21 21 21 20 17 16 15 14 13 12 13 13
66 67 65 63 62 60 61 60 54 52 52 52 53 52 50 48 48 42 39 43 44 43 42 40 40 38 37 36 34 34 33 32 31 29 27 24 19 20 23 21 18 19 21 20 20 20 20 21 21 22 23 24 25 27 29 30 30 29 28 28 29 29 28 27 26 25 28 31 28 26 25 25 25 23 22 21 19 18 17 17 17 18 19 20 21 21 21 20 18 16 14 13 12 12 13 13 13
66 66 63 62 63 58 58 57 49 46 49 50 51 51 49 47 45 40 39 43 44 43 44 43 42 41 39 36 34 34 33 32 30 27 25 20 19 22 23 20 19 20 20 19 20 20 22 22 23 24 25 25 26 27 29 29 28 27 26 27 27 28 27 27 26 27 30 31 29 27 26 26 25 24 22 21 20 18 17 18 18 19 19 20 21 21 21 20 18 15 14 13 12 13 14 14 13
66 66 63 63 62 55 52 51 44 42 46 48 49 48 47 46 44 41 41 43 44 44 45 45 45 42 39 37 35 34 33 32 29 26 23 19 21 24 22 21 21 20 20 20 21 22 23 24 25 26 26 27 28 28 29 29 28 26 26 26 26 26 25 26 26 27 30 31 29 27 26 27 26 24 22 21 20 18 18 19 19 20 20 20 21 21 21 20 18 16 15 14 13 13 14 15 14
66 65 63 62 59 53 48 45 42 41 44 47 47 48 47 46 45 43 43 44 44 44 45 45 45 43 40 38 36 35 34 31 28 25 22 21 24 24 22 21 21 21 20 21 22 24 25 25 26 27 28 29 30 30 30 29 26 25 25 25 25 24 23 24 26 27 30 30 29 28 27 27 26 24 22 21 20 19 19 19 19 20 21 21 21 21 21 21 19 17 15 14 14 14 14 15 15
67 64 60 59 57 53 47 44 42 41 43 45 45 47 47 46 46 46 45 45 44 44 44 44 43 43 42 40 38 36 34 31 28 25 23 24 26 25 23 22 22 21 21 22 23 25 25 25 27 28 30 31 32 32 30 27 25 24 25 24 23 22 22 23 25 27 29 29 29 28 27 27 26 25 23 21 20 19 19 19 19 21 21 22 22 22 22 21 19 17 15 15 14 14 14 14 14
65 62 59 58 56 53 47 44 43 42 42 44 44 45 45 46 48 48 47 46 44 44 44 44 45 45 43 42 40 38 35 32 28 26 26 27 28 26 24 23 22 21 21 23 25 25 26 27 28 30 32 33 32 30 27 26 26 25 24 23 22 22 22 22 24 27 29 29 29 28 28 28 27 25 23 21 20 19 18 18 20 21 22 22 22 22 22 21 19 16 15 15 14 13 13 13 14
63 61 58 57 57 52 45 42 42 40 41 44 44 44 44 46 50 50 49 47 46 45 45 46 47 46 45 44 43 40 37 33 30 29 29 30 30 27 25 23 22 22 23 25 26 26 27 28 30 33 34 33 30 27 26 25 25 25 24 23 23 23 23 24 25 27 29 30 30 29 29 28 27 24 23 21 20 19 19 19 21 22 22 22 22 22 21 20 18 16 15 14 12 12 12 13 13
64 62 59 58 57 50 45 43 41 40 42 44 42 42 43 46 50 50 48 47 47 45 44 45 45 45 45 45 43 41 37 34 32 31 30 31 30 27 25 24 23 23 25 27 27 28 29 31 33 35 35 31 27 26 24 23 24 25 25 24 24 25 25 24 24 26 29 30 30 29 29 27 25 23 22 22 20 20 20 21 22 23 23 23 22 21 20 18 17 15 13 12 11 11 12 12 13
64 63 59 59 57 49 45 43 41 41 42 41 41 41 42 45 49 49 48 49 47 43 42 43 44 44 44 43 41 39 36 35 34 32 32 32 30 27 26 26 25 26 28 29 29 30 32 34 34 35 34 27 25 24 22 22 24 24 23 24 24 24 24 24 24 26 29 30 31 29 28 26 24 23 22 22 21 21 22 23 23 23 23 23 22 21 19 17 15 13 12 11 11 11 11 12 14
62 62 60 58 53 48 46 43 41 41 40 41 42 41 42 45 47 48 48 48 45 43 42 42 43 43 42 40 38 37 35 35 34 32 33 32 29 28 27 26 26 27 29 30 30 32 35 35 33 32 29 24 25 25 23 24 25 23 21 22 23 23 23 25 26 27 29 32 31 27 25 25 24 23 23 23 23 23 24 24 23 23 23 23 22 20 19 16 14 12 11 11 11 11 12 13 14
61 62 59 55 50 47 46 43 41 41 42 44 43 42 43 45 46 47 48 48 45 45 43 42 42 41 39 38 36 35 34 33 32 32 34 32 29 28 27 26 26 28 29 30 32 34 36 33 29 28 26 25 26 26 27 26 24 24 22 22 23 23 24 25 27 27 28 31 31 26 24 24 23 23 23 24 23 23 24 23 22 22 23 23 22 21 19 16 13 11 11 10 10 11 12 14 15
61 61 56 52 49 48 47 44 42 43 45 44 42 43 44 44 45 46 47 48 47 46 43 40 38 37 37 36 34 33 32 31 32 34 34 30 29 29 27 27 27 28 30 32 34 34 33 29 27 29 27 27 26 25 26 26 24 25 24 23 23 23 25 26 27 27 27 28 28 25 24 24 24 24 24 23 22 23 23 22 22 23 23 23 21 20 17 14 11 10 10 10 10 11 13 14 16
61 59 55 51 49 49 48 46 44 46 47 44 42 43 43 43 44 44 46 46 45 43 40 37 36 35 36 35 33 32 30 31 33 34 32 29 28 28 27 27 28 30 32 34 34 32 30 28 29 31 28 25 25 24 24 24 24 25 24 24 23 24 25 25 25 25 25 26 26 24 24 26 26 25 25 24 22 22 22 22 22 23 22 21 20 17 13 10 9 10 10 10 11 12 14 16 18
60 56 53 51 50 50 50 49 48 50 48 43 43 44 43 43 43 43 45 44 41 38 36 35 34 33 32 32 32 31 31 33 34 32 30 28 28 27 26 28 30 31 32 33 32 30 29 28 30 33 29 25 24 23 23 22 23 24 25 25 24 25 25 25 25 24 24 26 26 25 26 27 27 26 25 23 21 20 20 22 22 22 21 19 16 12 9 9 9 9 9 11 12 14 16 18 20
57 54 53 52 52 53 53 52 52 51 48 45 44 44 44 44 44 45 44 41 38 36 35 33 32 30 30 31 32 32 32 34 33 31 30 29 27 26 27 30 32 32 33 33 32 30 30 30 33 32 27 22 21 21 21 21 23 25 26 26 25 26 25 25 26 26 25 25 24 24 24 25 25 24 22 20 19 19 20 21 21 20 19 16 12 9 9 9 9 9 11 13 15 17 18 20 21
56 55 55 54 54 56 56 55 54 52 50 47 45 45 44 43 44 44 40 37 36 35 34 33 31 30 31 33 33 33 34 34 32 31 30 29 27 27 29 31 33 33 34 34 32 31 32 33 32 30 25 18 16 18 19 19 22 25 26 25 26 26 24 24 25 26 25 23 22 22 22 22 23 21 18 17 18 19 20 21 21 19 16 12 10 9 9 9 10 11 13 15 17 18 19 20 21
57 56 55 54 55 56 56 56 55 53 51 49 47 46 44 43 43 41 36 35 36 35 35 35 35 35 36 36 35 35 35 34 32 32 31 29 28 29 30 32 32 33 33 33 32 32 34 33 31 29 25 19 16 18 20 20 21 23 23 23 24 24 23 23 24 24 23 20 19 20 20 21 20 16 15 16 17 20 21 22 21 17 13 11 10 10 10 10 11 12 14 16 18 19 20 21 22
57 56 56 56 55 54 55 55 54 53 52 50 48 47 45 44 44 40 36 36 37 37 38 38 37 38 38 38 37 37 36 35 34 33 31 30 30 30 31 31 32 32 32 32 31 32 33 33 30 28 25 21 18 20 22 22 22 23 23 23 22 22 22 23 23 22 20 18 18 19 20 21 18 15 15 15 18 21 22 22 18 14 12 11 11 10 10 11 12 14 15 17 18 20 21 22 23
56 55 56 57 56 57 57 56 55 55 53 50 47 46 45 44 42 38 35 36 37 37 37 37 36 37 38 38 39 38 37 36 35 33 31 31 31 30 31 31 31 32 31 31 31 31 32 31 29 28 26 23 21 21 23 23 22 22 21 21 21 20 19 20 21 19 18 18 19 19 19 19 17 15 15 16 19 21 21 18 15 12 11 11 10 10 11 12 14 15 16 18 19 20 22 23 24
54 55 57 58 60 61 59 57 57 55 52 49 46 45 44 43 40 35 34 37 37 36 36 36 37 38 39 40 39 38 36 36 34 32 32 32 31 30 30 31 31 32 31 30 30 31 31 29 29 29 27 23 20 20 21 20 20 19 18 18 18 17 16 18 19 18 17 17 18 17 18 18 16 15 16 19 20 19 16 14 12 11 11 10 10 11 12 13 14 16 17 19 20 21 22 23 24
56 55 57 60 62 61 59 59 58 54 50 49 47 45 44 44 40 35 35 37 36 35 37 37 37 38 39 38 37 35 35 34 33 32 31 30 30 30 30 30 31 31 31 30 30 30 29 28 29 29 26 22 19 19 19 18 19 18 16 16 16 15 16 17 17 18 17 16 17 17 17 17 16 16 19 20 18 15 13 12 11 11 11 10 11 12 13 14 15 17 19 20 21 22 23 24 24
61 59 60 60 59 58 57 57 54 51 49 49 47 46 46 44 40 35 34 36 35 36 37 37 37 36 37 35 34 33 33 33 31 30 29 29 29 30 29 30 31 31 30 30 30 29 27 27 28 26 23 21 20 19 18 17 18 17 15 15 15 15 17 17 16 16 15 15 15 15 15 15 17 19 19 17 14 12 12 12 11 11 10 11 12 13 15 16 17 18 20 21 22 23 23 23 24
59 60 60 59 57 57 55 54 52 49 49 49 47 46 45 43 39 34 33 35 35 36 36 36 36 35 35 34 33 34 33 31 30 29 28 29 29 29 29 30 31 30 29 30 29 28 27 27 27 24 21 20 20 19 18 17 17 16 15 15 15 15 16 16 15 15 16 15 14 16 17 18 19 18 17 14 13 12 12 12 11 11 12 13 14 15 16 17 18 20 21 22 22 22 23 23 24
56 57 57 57 56 57 56 55 53 50 49 49 47 45 43 41 38 31 31 34 35 37 36 35 35 34 34 34 34 34 32 30 29 29 28 29 29 30 29 30 30 29 29 29 28 27 27 26 25 23 20 19 19 17 16 16 14 14 14 13 13 13 12 13 14 15 15 15 15 17 18 18 17 16 14 13 13 12 12 13 13 14 15 16 16 17 18 19 20 21 22 22 22 22 23 24 24
Wind_Direction
230 229 225 221 221 222 224 221 217 217 213 214 220 223 228 223 220 221 211 202 198 202 198 192 195 205 216 220 225 230 232 233 221 211 213 219 225 225 221 238 287 340 347 344 343 348 350 347 351 356 2 3 359 357 356 354 352 351 350 350 352 353 353 354 355 355 353 349 350 354 354 357 1 6 11 14 17 19 20 21 21 22 23 24 22 18 15 12 10 10 13 16 15 13 13 12 11
230 231 229 223 221 220 221 220 221 227 222 220 227 223 223 224 222 226 222 209 204 203 206 206 200 204 217 224 232 237 240 244 239 234 228 230 240 247 251 250 280 329 340 336 339 344 346 347 350 354 358 358 355 352 349 348 346 346 345 345 346 346 346 347 349 349 348 345 345 350 352 354 359 3 9 13 16 18 19 20 21 21 22 24 23 19 15 12 9 8 10 13 14 13 12 12 9
230 230 230 227 223 222 222 222 223 231 229 221 230 229 222 226 226 227 228 219 213 208 210 215 213 209 211 220 232 235 237 245 250 252 250 253 266 273 265 257 280 308 330 332 339 343 347 350 352 353 354 354 350 347 345 344 344 343 341 341 342 341 341 342 343 343 343 341 341 347 349 352 356 1 8 12 15 17 18 19 20 20 21 23 24 21 15 11 8 6 7 9 11 11 10 10 8
232 231 230 229 227 225 224 222 223 227 228 218 221 231 222 227 227 224 231 225 220 218 216 217 222 222 217 218 227 234 237 244 250 256 259 266 277 280 273 273 286 298 320 331 343 346 349 352 352 353 353 351 346 343 342 343 342 340 339 338 338 338 337 337 338 338 339 338 338 343 346 349 354 359 6 11 15 16 17 18 18 19 20 21 23 22 17 11 7 5 3 3 5 6 6 5 5
233 233 231 230 230 228 225 221 222 222 222 218 218 227 220 225 226 223 230 229 223 225 225 222 222 227 226 224 228 235 239 243 246 249 253 262 273 278 278 281 287 298 312 329 347 353 355 354 353 352 350 347 343 340 339 341 340 338 337 336 336 335 334 333 334 334 335 335 334 338 343 347 352 357 5 9 14 16 16 16 17 18 18 19 21 21 18 12 6 2 358 355 355 355 356 356 358
233 234 233 232 232 230 229 224 223 221 218 218 218 224 220 222 227 223 227 231 228 226 229 230 226 226 227 226 228 232 234 239 245 246 248 254 264 271 278 283 289 298 306 323 351 2 3 358 353 348 344 341 337 336 336 338 337 336 335 335 334 332 331 329 330 330 331 332 331 334 339 344 350 355 3 8 12 14 14 14 15 16 16 16 18 18 16 12 6 359 354 349 345 343 344 346 349
232 234 234 233 235 233 232 228 225 222 220 219 217 222 219 220 227 224 225 231 233 230 229 232 229 227 227 226 227 232 233 238 245 246 248 250 255 265 277 282 289 297 299 309 354 9 3 356 349 344 339 333 331 332 334 336 335 333 333 333 332 330 330 327 326 326 327 329 328 331 336 341 348 352 0 6 10 12 12 12 13 14 14 13 14 15 13 11 6 359 351 344 339 334 332 334 338
232 234 234 233 236 235 232 232 228 223 222 221 216 220 220 219 224 224 225 228 233 234 231 231 230 228 228 227 226 230 233 236 242 246 249 251 254 264 274 280 290 298 292 289 333 351 349 346 341 338 333 328 326 328 331 333 332 331 331 332 331 329 328 325 323 322 324 326 324 327 331 337 344 348 359 5 9 10 10 11 11 12 11 10 10 10 10 7 5 1 354 347 340 333 328 325 329
232 233 235 232 236 236 232 233 232 226 225 221 215 220 221 221 224 224 225 226 229 231 230 230 231 232 232 230 228 228 231 236 240 246 251 255 258 263 269 275 286 292 284 280 301 319 326 328 329 330 328 325 323 324 326 327 328 328 328 331 330 327 326 322 319 319 321 323 321 322 323 330 339 344 356 3 6 9 10 10 11 10 9 8 7 6 6 4 3 1 358 354 349 342 334 328 328
233 233 235 233 233 236 233 233 234 231 229 223 216 219 220 222 225 227 228 228 228 229 229 229 231 236 235 233 233 232 233 238 242 247 251 256 259 260 264 270 278 282 280 280 290 302 308 312 316 321 322 322 320 319 319 321 322 323 326 330 329 326 323 319 316 317 319 320 316 314 313 320 330 338 353 0 3 6 8 9 10 9 7 5 4 4 3 1 1 359 358 357 357 355 347 340 335
234 233 234 235 233 235 235 233 235 234 231 225 220 219 220 221 223 227 229 231 233 233 233 232 232 236 238 236 237 238 238 241 245 249 252 255 258 261 264 268 273 276 278 281 288 294 298 303 308 313 316 317 317 315 314 315 317 319 324 328 326 323 321 316 314 315 317 317 312 308 304 307 320 329 347 356 359 3 5 7 9 9 6 4 3 2 1 0 360 358 357 355 357 1 2 357 348
234 234 234 236 235 235 237 235 235 235 232 228 224 221 221 221 222 224 227 230 234 236 236 236 235 237 240 241 243 244 244 243 245 248 252 255 258 261 264 267 270 273 277 284 290 291 294 299 305 308 310 313 315 313 311 310 312 316 322 325 324 320 317 312 311 312 313 313 308 304 297 299 310 318 339 351 354 358 2 6 7 7 5 3 2 0 360 0 359 356 354 352 352 357 4 7 5
233 235 235 235 236 236 237 237 235 235 233 231 228 225 223 222 223 223 226 231 232 235 237 238 239 240 242 245 247 249 249 247 245 246 251 254 257 260 264 267 270 274 280 285 288 289 293 298 302 304 307 310 314 314 311 308 310 314 320 321 319 316 312 308 307 309 308 308 304 299 290 288 298 306 328 343 347 353 359 4 4 5 4 1 0 358 358 359 358 355 351 348 347 349 355 0 1
232 235 236 235 236 237 237 237 235 235 233 233 231 228 227 225 224 224 226 232 234 236 239 240 242 243 243 245 248 249 251 251 250 248 250 254 257 261 265 267 271 275 279 282 283 287 292 296 299 303 305 309 313 314 310 308 309 313 317 317 314 311 307 303 303 305 304 303 301 295 282 277 287 294 314 328 333 344 355 1 1 1 1 359 357 354 355 356 355 352 347 344 342 342 344 349 352
232 234 237 236 236 236 236 236 235 235 233 234 233 228 229 230 227 227 228 231 235 238 240 241 242 243 244 245 246 248 251 252 253 252 253 256 258 260 263 267 271 274 277 279 282 287 291 294 298 301 305 308 311 312 309 308 309 312 314 312 308 305 302 300 300 300 300 299 297 292 277 269 277 284 295 305 312 330 348 354 356 356 357 356 351 348 348 348 348 346 342 337 334 334 334 337 341
231 233 235 236 236 235 236 236 235 235 233 233 233 228 231 235 231 230 231 231 235 237 239 241 241 243 244 245 246 248 250 252 253 254 256 258 260 262 264 268 272 274 276 279 283 287 289 293 296 300 304 306 308 309 308 307 308 311 310 306 301 300 298 296 296 296 295 294 292 288 274 263 271 275 278 283 292 311 334 343 346 348 351 350 346 340 337 337 337 338 334 327 321 321 324 326 330
231 233 234 234 235 234 235 236 235 235 234 234 233 228 232 239 235 232 233 232 234 234 236 240 240 241 243 244 246 248 250 252 252 253 255 258 261 263 266 268 271 273 276 279 281 285 289 293 295 299 302 304 306 307 306 306 308 309 307 299 295 294 293 292 292 292 290 289 288 285 271 257 264 268 266 271 278 291 309 326 332 337 341 341 340 334 326 324 325 327 325 316 306 304 309 316 322
230 231 232 233 234 234 234 236 236 235 234 235 235 231 232 239 237 234 235 234 234 234 235 238 239 239 241 242 244 246 248 250 252 252 253 255 257 261 263 266 269 272 274 276 280 285 289 291 294 297 300 301 303 304 303 304 306 307 301 293 290 290 288 289 289 287 286 285 285 283 270 255 257 262 260 263 269 277 288 304 315 324 331 332 333 329 318 311 311 314 312 306 296 291 298 307 316
230 231 232 233 234 234 235 236 238 235 232 235 236 232 231 237 238 234 234 237 236 235 235 236 239 239 239 241 242 243 246 248 249 251 252 254 256 258 259 263 266 268 271 274 279 284 287 289 292 295 297 299 300 301 300 302 303 302 296 288 285 287 286 286 285 284 282 280 282 282 268 253 253 257 256 257 263 269 276 287 300 312 322 325 327 325 315 303 301 305 303 302 295 291 297 304 313
230 230 232 233 234 235 236 236 238 236 232 232 234 233 230 233 238 233 231 237 237 235 236 236 237 240 239 239 240 241 244 246 248 249 251 254 256 256 257 260 263 266 270 274 278 281 284 287 290 292 294 296 297 297 297 299 300 296 292 286 281 283 283 281 281 280 277 276 278 278 264 249 250 254 253 254 258 263 271 279 290 304 314 319 322 322 315 303 299 301 299 298 296 296 301 307 316
230 231 232 233 234 235 236 236 237 237 233 231 232 233 230 230 236 234 231 234 237 237 236 236 237 239 239 239 238 240 242 245 248 249 250 252 253 255 256 258 261 265 269 272 276 279 282 285 287 289 291 293 294 295 295 297 296 290 287 285 278 277 277 274 273 273 273 273 273 272 257 245 248 252 252 253 254 260 268 276 286 296 307 313 315 318 317 308 300 297 292 291 291 293 299 307 314
230 232 232 233 235 234 236 237 237 237 235 232 231 233 231 230 233 234 232 231 235 238 235 234 237 239 240 240 239 239 241 244 248 251 251 250 251 253 255 257 260 263 267 271 274 277 280 282 284 286 288 290 292 293 294 295 292 285 283 282 275 272 270 267 265 264 266 267 267 266 252 241 246 250 252 253 254 260 268 275 282 290 299 305 308 313 318 314 305 298 289 285 285 288 292 299 304
231 233 233 233 235 235 236 237 237 237 236 233 231 233 231 230 231 233 232 230 233 237 235 233 236 239 240 240 240 240 240 242 246 249 250 250 249 251 253 255 258 262 266 270 273 275 278 280 282 284 286 288 290 291 292 290 286 281 281 278 270 267 265 264 262 261 263 264 264 260 246 239 243 247 250 253 257 263 269 274 279 284 290 298 302 308 316 316 306 296 287 282 283 285 289 294 299
232 234 234 234 235 236 237 238 237 236 236 234 231 231 230 229 231 231 230 230 232 234 235 234 235 238 240 240 241 241 241 242 244 247 248 249 250 251 253 256 259 262 265 268 271 273 276 278 280 282 284 286 288 288 287 283 279 280 279 272 266 264 262 263 263 262 264 264 261 254 242 236 240 245 248 253 259 264 269 272 275 279 283 290 297 304 315 315 302 289 282 281 283 285 290 295 301
232 233 234 234 235 236 237 239 238 236 236 234 230 228 229 229 230 231 228 230 232 232 234 236 236 238 240 241 241 241 242 243 245 247 249 251 251 253 255 257 259 262 265 268 270 272 275 277 278 280 282 285 285 283 280 276 277 278 274 267 263 262 261 263 262 261 262 262 259 251 239 234 239 243 246 251 258 262 268 271 272 275 279 285 293 302 312 311 299 289 281 281 283 286 291 295 299
233 233 235 235 235 236 238 239 239 237 235 234 230 227 228 228 228 230 229 229 230 230 233 236 237 238 240 242 242 242 242 243 245 247 249 250 251 253 255 258 260 263 266 268 270 272 274 276 277 279 280 281 279 276 273 272 274 273 267 263 262 261 262 262 261 258 258 259 257 250 239 234 238 242 243 248 253 259 264 268 271 274 278 284 292 299 304 303 299 294 286 282 282 284 289 291 294
233 232 234 236 236 236 237 239 239 238 236 232 229 227 228 227 225 228 230 229 228 230 232 234 236 238 239 241 243 243 242 243 245 247 249 251 252 254 256 259 261 264 266 267 268 270 272 273 275 276 276 274 272 271 270 270 269 264 260 261 262 263 263 260 258 257 257 257 254 249 239 235 237 240 242 246 250 255 260 265 271 275 278 282 288 292 294 295 296 296 292 285 281 282 285 287 290
234 232 234 237 237 237 236 237 238 237 236 232 229 229 228 225 222 224 229 227 226 230 231 232 234 237 238 240 243 244 244 243 245 247 249 251 253 255 256 259 261 262 262 263 265 267 268 269 271 271 270 268 266 265 265 265 262 257 257 261 263 264 262 259 256 255 256 255 251 246 239 235 236 237 240 245 248 252 257 263 271 277 280 281 283 285 287 288 290 293 294 288 282 281 283 285 287
233 232 234 236 237 237 236 236 237 236 235 233 231 230 226 223 221 221 228 227 224 228 230 230 232 235 237 239 241 244 246 245 245 247 248 251 253 255 256 257 256 255 256 259 261 263 264 267 268 268 265 262 260 259 259 258 256 254 256 262 266 264 262 260 256 254 255 253 247 243 238 235 235 235 238 242 246 250 255 261 269 276 279 279 278 279 281 282 285 290 293 289 283 279 280 280 280
232 231 232 235 236 237 236 236 236 236 235 232 232 231 225 225 224 221 227 226 223 227 228 229 231 233 235 237 240 243 246 247 246 246 248 250 252 252 252 251 249 250 252 256 259 262 264 264 264 263 260 258 257 256 255 252 251 252 256 263 266 265 262 260 257 254 254 251 243 239 238 236 236 235 236 239 243 248 254 260 267 273 275 274 273 275 277 278 281 287 290 287 279 274 273 272 273
230 231 231 233 234 236 236 236 236 236 236 233 232 231 227 228 229 223 224 225 223 226 227 227 229 231 233 235 238 242 245 247 247 247 248 249 250 248 248 246 246 248 251 255 257 259 260 258 258 258 257 257 257 256 252 250 250 252 258 264 265 265 264 262 259 254 252 248 238 235 236 236 237 237 236 239 242 247 253 259 266 272 272 270 270 272 273 275 279 283 285 281 273 268 267 267 268
227 229 229 231 233 234 235 235 235 235 236 235 232 232 228 229 231 224 220 223 223 225 226 227 229 230 231 232 235 239 243 246 248 249 249 247 246 246 246 243 244 247 249 251 251 251 250 251 253 254 256 257 256 253 250 249 250 254 259 262 262 263 264 264 261 254 249 244 235 232 235 236 238 238 238 240 242 247 252 257 264 269 271 269 269 270 271 274 278 280 280 275 268 265 265 266 269
225 226 227 229 231 233 235 233 233 234 234 234 231 232 230 229 232 225 218 223 223 224 226 226 229 229 229 230 232 236 239 244 247 248 247 244 243 243 241 239 241 243 242 240 239 239 242 245 249 251 253 254 254 252 250 250 252 255 257 258 257 259 261 262 261 252 244 240 233 232 234 235 238 239 240 241 242 246 250 256 261 265 268 268 268 268 270 275 279 279 275 269 266 266 268 269 271
222 224 225 227 229 231 234 233 231 232 233 233 231 232 231 228 231 225 218 223 224 223 226 226 228 229 228 229 229 231 235 239 242 242 241 240 238 236 233 235 237 234 230 228 229 233 237 243 247 250 250 250 251 250 250 251 251 253 253 253 253 255 257 259 258 249 241 236 232 231 234 235 238 239 241 243 244 246 250 254 259 261 263 264 266 267 271 276 278 275 271 266 265 268 271 271 272
221 223 224 226 227 227 232 231 228 230 232 232 232 232 231 229 230 225 219 223 223 222 225 226 228 229 228 228 228 229 231 233 235 235 236 235 231 228 229 231 229 223 221 222 226 232 238 243 246 248 248 248 248 248 249 250 250 251 250 250 251 253 255 256 255 247 239 234 231 232 234 236 238 240 242 245 246 248 250 253 256 258 259 262 265 268 271 275 276 272 270 268 267 270 273 272 273
221 222 222 225 227 226 230 233 228 228 232 233 233 233 232 232 231 227 222 223 222 221 223 225 227 227 227 227 227 228 229 230 231 231 232 229 224 225 226 223 219 217 218 221 228 234 240 243 245 247 248 248 247 247 248 249 250 250 249 250 252 255 256 258 257 250 240 234 232 234 236 238 240 241 243 246 248 250 251 253 256 258 260 262 265 266 270 273 273 270 270 270 270 274 276 275 274
219 220 220 223 227 226 229 234 230 227 231 232 232 232 231 231 231 227 225 224 222 221 222 224 226 227 227 227 227 228 228 229 228 228 229 223 222 223 221 217 215 215 218 223 230 236 240 242 244 246 248 249 247 246 247 248 249 250 252 254 255 257 258 258 256 249 240 235 234 236 238 241 243 245 247 249 251 252 253 254 258 261 262 263 263 264 268 271 270 268 269 270 273 276 278 278 278
219 219 218 220 225 225 226 230 228 225 229 230 229 230 227 227 229 226 224 224 222 221 221 224 226 227 228 227 227 228 229 228 227 228 225 219 221 222 217 215 215 217 220 225 231 236 239 242 245 247 248 249 247 245 245 247 250 252 255 256 257 258 258 258 255 247 240 238 238 239 241 245 247 250 252 254 255 254 255 257 259 261 262 262 262 262 265 267 267 267 268 271 275 277 280 283 284
218 218 217 219 222 222 222 224 224 221 224 227 227 227 225 224 226 224 222 223 222 221 221 222 225 227 228 228 228 228 228 228 227 226 221 218 222 223 219 218 218 219 223 227 233 237 240 244 246 247 248 248 246 246 246 248 251 252 253 256 256 256 255 255 252 245 240 240 241 242 244 247 250 252 254 256 258 258 259 259 259 259 260 260 260 260 262 264 264 266 268 271 274 277 281 285 287
217 217 216 217 219 220 219 220 222 220 221 224 224 223 222 221 223 223 220 221 221 220 219 219 222 224 226 227 228 228 228 226 225 223 219 220 224 225 223 222 222 223 226 230 234 237 240 243 246 248 249 249 248 249 250 251 250 249 250 253 253 252 252 251 247 243 240 238 239 241 245 247 248 250 254 256 257 260 260 258 257 257 258 258 258 259 261 262 262 265 268 270 273 277 281 286 289
215 216 215 215 217 217 215 218 221 220 220 224 223 221 220 218 221 221 219 219 219 218 217 218 219 222 223 225 226 227 226 225 223 222 221 223 227 228 226 226 226 225 228 232 234 236 239 243 247 250 251 250 251 252 253 253 250 248 246 246 248 250 250 246 242 241 239 238 239 241 245 248 247 248 253 255 255 258 258 256 256 256 256 256 257 259 260 260 261 264 268 270 274 278 281 286 292
212 213 212 213 214 212 210 214 216 217 220 223 223 221 219 218 220 221 219 219 219 218 217 217 219 221 222 224 225 226 226 225 225 225 225 227 230 231 230 229 227 226 229 232 234 235 239 243 247 251 254 253 251 251 252 252 250 248 245 245 248 248 247 244 243 241 239 239 241 244 247 249 250 251 253 255 255 256 256 255 255 255 256 256 257 259 259 258 260 263 267 270 274 280 284 289 295
210 211 210 211 211 206 207 211 213 217 220 221 222 220 218 218 219 219 218 219 218 218 218 218 218 219 222 224 225 226 227 227 227 227 228 230 232 232 230 229 226 226 229 231 233 235 239 243 246 252 258 255 248 247 249 248 244 242 245 251 252 248 244 244 245 244 243 243 242 246 249 249 252 253 252 256 257 256 256 255 255 255 255 256 257 257 255 255 258 263 266 269 274 280 287 292 297
209 210 209 210 208 203 205 207 210 215 218 219 220 219 218 219 219 218 218 219 218 217 217 217 217 218 220 222 224 225 226 227 227 226 227 230 231 230 229 228 226 226 229 231 232 234 240 244 247 254 260 255 246 244 246 247 243 239 244 251 250 245 242 242 244 246 248 246 243 244 249 251 253 252 251 256 257 257 256 254 253 254 255 256 257 254 251 251 255 260 265 267 272 280 287 292 297
208 208 207 208 204 200 203 205 207 212 216 218 217 216 218 219 219 217 217 218 217 217 217 216 216 217 218 220 221 223 224 225 224 223 226 228 227 227 227 225 224 226 228 231 231 235 242 247 251 257 258 253 248 245 246 247 243 239 244 248 246 241 240 242 245 248 249 248 244 242 245 249 250 250 252 255 257 258 258 255 255 255 256 256 255 250 247 248 251 258 264 265 270 279 287 293 298
207 206 203 204 200 198 201 203 205 211 216 217 216 217 217 218 219 217 216 217 216 216 216 216 216 216 216 218 219 220 221 221 220 222 225 226 224 225 224 220 221 224 227 230 233 238 247 253 255 255 254 251 250 247 247 247 242 241 245 248 246 240 239 244 247 246 245 246 245 244 246 247 248 251 254 255 257 261 261 260 259 256 254 253 249 246 245 246 249 255 259 263 272 283 290 296 299
206 204 199 200 198 197 200 201 204 212 217 216 216 218 218 218 219 217 217 218 216 216 215 215 216 215 215 214 215 217 217 217 219 222 223 223 223 223 222 219 221 225 227 231 235 242 251 256 257 257 254 253 253 252 251 250 246 245 245 247 247 241 241 245 245 242 242 244 246 247 248 248 250 252 252 253 256 261 263 262 257 253 250 248 245 245 246 246 248 252 259 268 279 288 293 295 296
203 200 195 196 195 195 199 201 205 212 215 214 216 218 217 218 219 218 217 217 216 215 214 215 216 216 214 211 211 212 213 215 218 221 221 221 222 222 220 220 222 226 229 233 238 246 253 255 256 257 255 252 252 254 255 253 248 244 244 245 244 241 240 241 240 239 241 245 248 250 249 248 252 253 249 250 255 259 262 258 252 248 246 244 245 244 243 244 248 255 267 278 285 289 291 291 293
199 196 193 193 194 195 198 201 206 212 213 213 216 218 217 216 217 218 216 213 213 212 211 212 214 214 212 209 208 208 211 215 217 218 219 219 220 220 220 222 224 228 232 236 240 247 251 250 251 254 253 248 248 252 252 248 243 240 241 243 241 240 240 240 242 243 243 245 248 249 248 247 248 247 246 250 254 254 257 257 253 249 244 241 240 238 240 246 254 265 275 281 285 287 289 293 297
197 194 192 192 194 196 198 202 206 210 212 212 214 217 218 216 218 219 214 209 209 208 207 208 207 208 208 207 206 207 209 213 215 216 217 217 218 219 220 223 226 229 234 238 242 247 250 249 249 253 254 248 245 250 250 244 241 238 239 241 243 244 243 243 245 245 243 245 245 243 243 244 241 240 245 250 251 250 253 256 254 248 241 233 230 234 241 251 261 270 276 281 284 288 293 298 301
195 193 190 191 195 198 199 202 206 209 212 212 213 215 217 216 218 218 211 207 206 204 203 203 202 202 203 203 203 206 209 211 213 215 216 216 217 219 221 224 227 230 235 240 244 248 250 251 250 251 253 251 245 247 247 245 241 237 238 243 247 248 249 247 246 245 244 245 243 241 241 241 238 238 244 247 249 250 250 251 248 239 230 224 227 236 246 256 265 271 276 282 288 294 298 300 301
193 191 188 189 194 198 201 203 206 209 212 213 213 215 216 215 216 214 207 204 204 202 201 201 200 200 200 200 201 205 208 209 212 214 214 215 217 219 221 224 229 232 237 241 245 248 250 251 251 251 255 257 250 243 242 244 242 240 244 248 249 249 247 246 246 245 245 243 240 239 238 236 237 241 244 246 251 250 247 244 238 225 219 221 229 240 251 260 267 272 280 288 293 297 298 298 300
192 191 189 189 193 197 200 203 206 208 212 213 213 215 217 216 216 211 203 203 204 202 201 200 200 200 199 199 202 205 208 208 211 212 212 214 216 219 222 226 231 234 237 240 243 246 248 250 254 256 259 260 252 242 240 242 244 246 249 249 251 250 245 245 247 246 245 242 237 233 232 235 241 244 244 248 251 247 240 234 224 215 217 224 235 247 257 265 271 279 287 293 295 296 296 298 301
191 191 188 190 194 196 197 202 206 208 211 214 214 216 219 219 218 210 201 203 203 201 200 199 199 199 199 201 204 206 208 209 211 212 212 214 216 219 224 228 233 235 237 240 241 244 246 250 255 258 259 258 249 242 242 244 246 249 249 248 252 252 245 244 248 247 244 239 233 229 229 236 242 243 245 247 245 239 231 222 214 215 223 231 244 255 263 270 278 286 291 292 293 294 296 299 303
188 189 189 193 197 197 197 201 205 207 209 213 214 215 218 220 219 210 202 204 203 199 200 200 200 200 202 204 206 207 209 211 212 214 214 215 218 222 226 230 233 236 238 239 240 242 245 249 253 256 257 253 244 240 244 247 249 250 250 250 250 246 239 238 244 246 239 229 228 230 233 236 239 241 243 241 236 230 223 218 217 223 231 241 253 262 270 277 284 287 288 290 292 294 297 301 303
186 186 190 195 196 197 199 203 205 206 208 213 214 214 216 218 217 209 202 202 202 199 200 200 200 201 203 205 206 208 210 212 214 215 216 218 222 225 228 231 234 235 237 238 239 241 243 247 250 253 253 248 241 239 243 247 247 248 251 253 247 238 236 238 240 237 225 218 230 239 238 236 235 236 237 236 234 230 224 223 227 232 241 252 261 269 275 280 284 285 286 289 292 295 299 301 303
188 187 189 193 195 196 199 203 205 205 207 213 215 215 216 217 216 208 201 200 201 200 199 199 199 200 201 202 204 207 210 211 213 215 216 219 224 228 230 232 233 234 235 237 239 241 243 247 250 250 247 244 242 243 245 245 243 246 254 256 246 235 235 239 238 230 222 226 239 242 238 236 235 236 237 238 238 233 230 231 235 242 251 259 266 272 276 279 281 283 286 289 293 296 298 299 301
189 188 188 190 194 196 197 201 203 203 206 211 214 216 217 217 215 207 200 200 200 199 197 197 199 199 199 200 203 206 208 209 210 212 215 220 225 230 232 232 232 232 234 237 239 242 245 247 248 246 241 240 242 243 242 238 240 251 259 255 241 229 232 241 240 234 232 235 239 238 237 238 239 240 242 240 237 233 234 238 243 250 257 263 269 272 275 278 280 283 286 290 294 295 296 298 301